Weather History for Bigfork, MN

Change the Weather History Date:

Sunday, May 26, 2013

  Actual Average (KGPZ) Record (KGPZ)
Temperature  
Mean Temperature 58 °F -  
Max Temperature 71 °F 69 °F 89 °F (1934)
Min Temperature 44 °F 44 °F 27 °F (1961)
Degree Days  
Heating Degree Days 8    
Growing Degree Days 8 (Base 50)    
Moisture  
Dew Point 33 °F    
Average Humidity 39    
Maximum Humidity 62    
Minimum Humidity 22    
Precipitation  
Precipitation 0.00 in - - ()
Sea Level Pressure  
Sea Level Pressure 30.20 in    
Wind  
Wind Speed 8 mph (SE)    
Max Wind Speed 16 mph    
Max Gust Speed 24 mph    
Visibility 10 miles    
Events      
Averages and records for this station are not official NWS values.
T = Trace of Precipitation, MM = Missing Value Source: NWS Daily Summary

Daily Weather History Graph

Daily Weather History Graph

Search for Another Location

Airport:

Trip Planner

Search our weather history database for the weather conditions in past years. The results will help you decide how hot, cold, wet, or windy it might be!

Date:

Astronomy

May. 26, 2013 Rise Set
Actual Time 5:24 AM CDT 8:59 PM CDT
Civil Twilight 4:45 AM CDT 9:38 PM CDT
Nautical Twilight 3:54 AM CDT 10:30 PM CDT
Astronomical Twilight 2:43 AM CDT 11:41 PM CDT
Moon 10:45 PM CDT (5/26) 6:55 AM CDT (5/26)
Length of Visible Light 16h 52m
Length of Day
15h 34m
Waning Gibbous, 96% of the Moon is Illuminated
May 26
Waning Gibbous
May 31
Last Quarter
Jun 8
New
Jun 16
First Quarter
Jun 23
Full

Hourly Weather History & Observations

Time (CDT) Temp. Windchill Dew Point Humidity Pressure Visibility Wind Dir Wind Speed Gust Speed Precip Events Conditions
12:13 AM 51.8 °F - 35.6 °F 54% 30.25 in 10.0 mi ESE 6.9 mph - N/A   Clear
12:33 AM 51.8 °F - 35.6 °F 54% 30.26 in 10.0 mi ESE 8.1 mph - N/A   Clear
12:53 AM 51.8 °F - 33.8 °F 50% 30.26 in 10.0 mi ESE 6.9 mph - N/A   Clear
1:13 AM 51.8 °F - 33.8 °F 50% 30.26 in 10.0 mi ESE 8.1 mph - N/A   Clear
1:33 AM 50.0 °F - 33.8 °F 54% 30.26 in 10.0 mi ESE 5.8 mph - N/A   Clear
1:53 AM 48.2 °F - 33.8 °F 58% 30.27 in 10.0 mi ESE 5.8 mph - N/A   Clear
2:13 AM 48.2 °F - 32.0 °F 54% 30.26 in 10.0 mi East 4.6 mph - N/A   Clear
2:33 AM 48.2 °F - 32.0 °F 54% 30.26 in 10.0 mi ESE 5.8 mph - N/A   Clear
2:53 AM 46.4 °F 44.3 °F 32.0 °F 57% 30.26 in 10.0 mi ESE 4.6 mph - N/A   Clear
3:13 AM 46.4 °F 44.3 °F 32.0 °F 57% 30.26 in 10.0 mi ESE 4.6 mph - N/A   Clear
3:33 AM 46.4 °F 45.2 °F 30.2 °F 53% 30.25 in 10.0 mi East 3.5 mph - N/A   Clear
3:53 AM 44.6 °F 42.2 °F 30.2 °F 57% 30.24 in 10.0 mi East 4.6 mph - N/A   Clear
4:13 AM 44.6 °F 43.1 °F 30.2 °F 57% 30.24 in 10.0 mi East 3.5 mph - N/A   Mostly Cloudy
4:33 AM 46.4 °F - 32.0 °F 57% 30.25 in 10.0 mi Calm Calm - N/A   Overcast
4:53 AM 46.4 °F - 33.8 °F 62% 30.27 in 10.0 mi Calm Calm - N/A   Overcast
5:13 AM 46.4 °F 43.5 °F 32.0 °F 57% 30.27 in 10.0 mi ESE 5.8 mph - N/A   Overcast
5:33 AM 48.2 °F - 32.0 °F 54% 30.27 in 10.0 mi ESE 8.1 mph - N/A   Overcast
5:53 AM 48.2 °F - 32.0 °F 54% 30.28 in 10.0 mi SE 5.8 mph - N/A   Overcast
6:13 AM 48.2 °F - 33.8 °F 58% 30.27 in 10.0 mi SE 5.8 mph - N/A   Overcast
6:33 AM 50.0 °F - 33.8 °F 54% 30.26 in 10.0 mi ESE 5.8 mph - N/A   Mostly Cloudy
6:53 AM 50.0 °F - 33.8 °F 54% 30.25 in 10.0 mi ESE 6.9 mph - N/A   Scattered Clouds
7:13 AM 51.8 °F - 33.8 °F 50% 30.24 in 10.0 mi ESE 6.9 mph - N/A   Clear
7:33 AM 53.6 °F - 33.8 °F 47% 30.25 in 10.0 mi ESE 8.1 mph - N/A   Scattered Clouds
7:53 AM 55.4 °F - 33.8 °F 44% 30.26 in 10.0 mi SE 8.1 mph - N/A   Mostly Cloudy
8:13 AM 55.4 °F - 33.8 °F 44% 30.27 in 10.0 mi ESE 6.9 mph - N/A   Mostly Cloudy
8:33 AM 57.2 °F - 35.6 °F 44% 30.26 in 10.0 mi SE 10.4 mph - N/A   Scattered Clouds
8:53 AM 59.0 °F - 35.6 °F 42% 30.26 in 10.0 mi SE 9.2 mph 16.1 mph N/A   Clear
9:13 AM 60.8 °F - 37.4 °F 42% 30.25 in 10.0 mi SSE 8.1 mph 17.3 mph N/A   Clear
9:33 AM 60.8 °F - 37.4 °F 42% 30.24 in 10.0 mi SE 9.2 mph - N/A   Clear
9:53 AM 62.6 °F - 37.4 °F 39% 30.24 in 10.0 mi SE 10.4 mph 19.6 mph N/A   Clear
10:13 AM 62.6 °F - 33.8 °F 34% 30.23 in 10.0 mi SE 13.8 mph 24.2 mph N/A   Clear
10:34 AM 64.4 °F - 33.8 °F 32% 30.23 in 10.0 mi SE 12.7 mph 16.1 mph N/A   Clear
10:53 AM 64.4 °F - 33.8 °F 32% 30.23 in 10.0 mi SSE 9.2 mph 18.4 mph N/A   Clear
11:13 AM 64.4 °F - 32.0 °F 30% 30.23 in 10.0 mi South 13.8 mph 17.3 mph N/A   Clear
11:33 AM 64.4 °F - 33.8 °F 32% 30.23 in 10.0 mi SE 16.1 mph 23.0 mph N/A   Clear
11:53 AM 66.2 °F - 35.6 °F 32% 30.22 in 10.0 mi SSE 12.7 mph 19.6 mph N/A   Clear
12:13 PM 64.4 °F - 33.8 °F 32% 30.22 in 10.0 mi SSE 10.4 mph 23.0 mph N/A   Clear
12:33 PM 66.2 °F - 33.8 °F 30% 30.21 in 10.0 mi SSE 12.7 mph 21.9 mph N/A   Clear
12:53 PM 68.0 °F - 33.8 °F 28% 30.21 in 10.0 mi SE 12.7 mph 20.7 mph N/A   Clear
1:13 PM 69.8 °F - 33.8 °F 27% 30.20 in 10.0 mi SE 15.0 mph 23.0 mph N/A   Clear
1:33 PM 69.8 °F - 33.8 °F 27% 30.18 in 10.0 mi SE 15.0 mph 24.2 mph N/A   Clear
1:53 PM 69.8 °F - 33.8 °F 27% 30.17 in 10.0 mi SE 15.0 mph 23.0 mph N/A   Clear
2:13 PM 71.6 °F - 33.8 °F 25% 30.17 in 10.0 mi SSE 11.5 mph 18.4 mph N/A   Clear
2:33 PM 71.6 °F - 33.8 °F 25% 30.17 in 10.0 mi ESE 13.8 mph 19.6 mph N/A   Clear
2:53 PM 71.6 °F - 33.8 °F 25% 30.16 in 10.0 mi SE 8.1 mph 21.9 mph N/A   Clear
3:13 PM 71.6 °F - 33.8 °F 25% 30.15 in 10.0 mi SSE 16.1 mph 23.0 mph N/A   Clear
3:33 PM 71.6 °F - 33.8 °F 25% 30.15 in 10.0 mi South 15.0 mph 19.6 mph N/A   Clear
3:53 PM 71.6 °F - 32.0 °F 23% 30.14 in 10.0 mi SSE 12.7 mph 18.4 mph N/A   Clear
4:13 PM 69.8 °F - 32.0 °F 25% 30.14 in 10.0 mi SE 11.5 mph 17.3 mph N/A   Clear
4:33 PM 71.6 °F - 32.0 °F 23% 30.14 in 10.0 mi ESE 13.8 mph 17.3 mph N/A   Clear
4:53 PM 71.6 °F - 32.0 °F 23% 30.13 in 10.0 mi SE 11.5 mph 18.4 mph N/A   Clear
5:13 PM 71.6 °F - 30.2 °F 22% 30.13 in 10.0 mi SE 11.5 mph 19.6 mph N/A   Clear
5:33 PM 71.6 °F - 30.2 °F 22% 30.13 in 10.0 mi SE 9.2 mph 16.1 mph N/A   Clear
5:53 PM 69.8 °F - 30.2 °F 23% 30.13 in 10.0 mi South 10.4 mph 17.3 mph N/A   Clear
6:13 PM 69.8 °F - 30.2 °F 23% 30.13 in 10.0 mi SE 10.4 mph 16.1 mph N/A   Clear
6:33 PM 69.8 °F - 32.0 °F 25% 30.12 in 10.0 mi SE 5.8 mph 17.3 mph N/A   Clear
6:53 PM 68.0 °F - 30.2 °F 24% 30.13 in 10.0 mi SSE 9.2 mph 18.4 mph N/A   Clear
7:13 PM 66.2 °F - 30.2 °F 26% 30.13 in 10.0 mi SE 10.4 mph - N/A   Clear
7:33 PM 66.2 °F - 30.2 °F 26% 30.12 in 10.0 mi SSE 8.1 mph - N/A   Clear
7:53 PM 66.2 °F - 33.8 °F 30% 30.12 in 10.0 mi SE 5.8 mph - N/A   Clear
8:14 PM 66.2 °F - 33.8 °F 30% 30.12 in 10.0 mi SE 8.1 mph - N/A   Clear
8:33 PM 64.4 °F - 33.8 °F 32% 30.13 in 10.0 mi Calm Calm - N/A   Clear
8:53 PM 64.4 °F - 33.8 °F 32% 30.13 in 10.0 mi SE 4.6 mph - N/A   Clear
9:13 PM 62.6 °F - 33.8 °F 34% 30.14 in 10.0 mi SE 5.8 mph - N/A   Clear
9:33 PM 62.6 °F - 35.6 °F 37% 30.14 in 10.0 mi SE 6.9 mph - N/A   Clear
9:53 PM 62.6 °F - 35.6 °F 37% 30.14 in 10.0 mi SSE 6.9 mph - N/A   Clear
10:13 PM 60.8 °F - 35.6 °F 39% 30.14 in 10.0 mi SE 4.6 mph - N/A   Mostly Cloudy
10:33 PM 60.8 °F - 35.6 °F 39% 30.14 in 10.0 mi SE 5.8 mph - N/A   Overcast
10:53 PM 60.8 °F - 35.6 °F 39% 30.14 in 10.0 mi SE 9.2 mph - N/A   Mostly Cloudy
11:13 PM 57.2 °F - 35.6 °F 44% 30.13 in 10.0 mi SE 4.6 mph - N/A   Scattered Clouds
11:33 PM 57.2 °F - 35.6 °F 44% 30.13 in 10.0 mi ESE 12.7 mph 18.4 mph N/A   Clear
11:53 PM 57.2 °F - 33.8 °F 41% 30.12 in 10.0 mi ESE 9.2 mph 19.6 mph N/A   Clear